EW2565 Weather Reports


Display with metric or nautical units.
time (UTC)temp
F
wind
direction
speed
MPH
gust
MPH
rain 1hr
in
rain 24hr
in
rain mn
in
humidity
%
barometer
mb
20260505051527 51 134 0.0 2.0 0.00 0.00 0.00 49 1000.2
20260505041522 56 134 0.0 4.0 0.00 0.00 0.00 40 1000.0
20260505040015 56 134 5.0 7.0 0.00 0.00 0.00 38 999.3
20260505034511 57 134 2.0 6.0 0.00 0.00 0.00 36 999.1
20260505033013 58 134 2.0 9.0 0.00 0.00 0.00 37 999.0
20260505031510 57 134 3.0 7.0 0.00 0.00 0.00 37 998.8
20260505030010 57 134 4.0 8.0 0.00 0.00 0.00 39 998.8
20260505024517 56 134 3.0 8.0 0.00 0.00 0.00 41 998.7
20260505023022 55 134 3.0 7.0 0.00 0.00 0.00 44 998.6
20260505021516 56 134 1.0 4.0 0.00 0.00 0.00 44 998.6
20260505020011 58 134 0.0 2.0 0.00 0.00 0.00 41 998.5
20260505014513 60 134 0.0 2.0 0.00 0.00 0.00 42 998.3
20260505013008 61 134 0.0 2.0 0.00 0.00 0.00 39 998.3
20260505011511 64 134 0.0 2.0 0.00 0.00 0.00 30 998.4
20260505010007 59 134 1.0 6.0 0.00 0.00 0.00 35 998.6
20260505004519 58 134 2.0 7.0 0.00 0.00 0.00 37 998.8
20260505003011 58 134 0.0 15.0 0.00 0.00 0.00 37 999.2
20260505001508 58 134 6.0 17.0 0.00 0.00 0.00 40 999.2
20260505000009 61 134 6.0 16.0 0.00 0.00 0.00 36 999.0
20260504234501 61 134 1.0 3.0 0.00 0.00 0.00 35 998.0
20260504233106 63 134 1.0 3.0 0.00 0.00 0.00 42 998.1
20260504231554 65 134 0.0 2.0 0.00 0.00 0.00 26 997.8
20260504224551 65 134 0.0 5.0 0.00 0.00 0.00 28 997.9
20260504223058 65 134 1.0 4.0 0.00 0.00 0.00 30 998.0
20260504221548 66 134 1.0 5.0 0.00 0.00 0.00 27 998.1
20260504220047 65 134 1.0 6.0 0.00 0.00 0.00 37 998.4
20260504214546 64 134 2.0 5.0 0.00 0.00 0.00 29 998.7
20260504213041 66 134 1.0 4.0 0.00 0.00 0.00 28 998.9
20260504211537 62 134 0.0 0.0 0.00 0.00 0.00 33 999.2
20260504210035 62 134 0.0 2.0 0.00 0.00 0.00 30 999.5
20260504204532 62 134 0.0 3.0 0.00 0.00 0.00 32 999.7
20260504203035 60 134 2.0 5.0 0.00 0.00 0.00 37 1000.0
20260504201528 59 134 0.0 3.0 0.00 0.00 0.00 42 1000.1
20260504200027 59 134 1.0 3.0 0.00 0.00 0.00 37 1000.2
20260504194528 62 134 1.0 5.0 0.00 0.00 0.00 34 1000.3
20260504193028 65 134 2.0 6.0 0.00 0.01 0.00 27 1000.4
20260504191526 64 134 1.0 3.0 0.00 0.01 0.00 30 1000.6
20260504190023 63 134 1.0 5.0 0.00 0.01 0.00 32 1000.8
20260504184528 61 134 0.0 4.0 0.00 0.01 0.00 35 1001.1
20260504183024 62 134 2.0 5.0 0.00 0.01 0.00 30 1001.4
20260504181530 61 134 0.0 3.0 0.00 0.01 0.00 38 1001.7
20260504180022 59 134 2.0 5.0 0.00 0.01 0.00 36 1001.9
20260504174518 60 134 2.0 4.0 0.00 0.01 0.00 34 1002.0
20260504173017 61 134 1.0 3.0 0.00 0.01 0.00 34 1002.1
20260504171516 60 134 0.0 3.0 0.00 0.01 0.00 36 1002.2
20260504140111 47 134 0.0 1.0 0.00 0.01 0.00 67 1004.0
20260504120109 40 134 2.0 4.0 0.00 0.01 0.00 55 1003.6
20260504081538 45 134 0.0 3.0 0.00 0.01 0.00 44 1004.1